Hourly Data Report for October 06, 2017

All times are specified in Local Standard Time (LST). Add 1 hour to adjust for Daylight Saving Time where and when it is observed.

WHALE COVE A
NUNAVUT

62°14'24.000" N
92°35'53.000" W
12.20 m
2303990
YXN

Related Data

No related data is available for this station

Download Data

Hourly Data (October 2017)
Hourly Data Report for October 6, 2017
Temp Definition
°C
Dew Point Temp Definition
°C
Rel Hum Definition
%
Wind Dir Definition
10's deg

Wind Spd Definition
km/h
Visibility Definition
km
Stn Press Definition
kPa
Hmdx Definition


Wind Chill Definition


Weather Definition


TIME
00:00 Legend Double Dagger -3.8 -6.0 85 32 21 LegendMM 99.64   -10 LegendNANA
01:00 Legend Double Dagger -4.6 -6.4 87 34 28 LegendMM 99.65   -12 LegendNANA
02:00 Legend Double Dagger -4.8 -6.5 88 32 28 LegendMM 99.66   -12 LegendNANA
03:00 Legend Double Dagger -5.2 -6.6 90 32 23 LegendMM 99.68   -12 LegendNANA
04:00 Legend Double Dagger -5.3 -6.9 89 32 26 LegendMM 99.74   -13 LegendNANA
05:00 Legend Double Dagger -5.4 -7.0 89 33 25 LegendMM 99.73   -13 LegendNANA
06:00 Legend Double Dagger -5.5 -7.0 90 32 26 LegendMM 99.77   -13 LegendNANA
07:00 Legend Double Dagger -5.2 -6.7 89 33 24 LegendMM 99.74   -12 LegendNANA
08:00 Legend Double Dagger -4.1 -6.1 86 34 32 LegendMM 99.76   -12 LegendNANA
09:00 Legend Double Dagger -3.7 -5.6 87 35 29 LegendMM 99.80   -11 LegendNANA
10:00 Legend Double Dagger -3.3 -4.9 89 34 29 LegendMM 99.82   -11 LegendNANA
11:00 Legend Double Dagger -2.6 -4.7 86 36 22 LegendMM 99.83   -9 LegendNANA
12:00 Legend Double Dagger -1.7 -4.9 79 36 16 LegendMM 99.84   -7 LegendNANA
13:00 Legend Double Dagger -1.0 -4.4 78 36 13 LegendMM 99.88   -5 LegendNANA
14:00 Legend Double Dagger -0.6 -4.1 77 2 17 LegendMM 99.86   -6 LegendNANA
15:00 Legend Double Dagger -0.5 -3.7 79 2 17 LegendMM 99.89   -5 LegendNANA
16:00 Legend Double Dagger -0.7 -4.0 79 5 17 LegendMM 99.92   -6 LegendNANA
17:00 Legend Double Dagger -1.3 -2.9 89 5 15 LegendMM 99.96   -6 LegendNANA
18:00 Legend Double Dagger -0.9 -3.3 84 6 16 LegendMM 99.96   -6 LegendNANA
19:00 Legend Double Dagger -0.5 -3.3 82 7 13 LegendMM 100.02   -5 LegendNANA
20:00 Legend Double Dagger -0.6 -1.8 92 8 4 LegendMM 100.03   -2 LegendNANA
21:00 Legend Double Dagger -1.3 -2.3 93 6 7 LegendMM 100.03   -4 LegendNANA
22:00 Legend Double Dagger 0.0 -3.4 78 10 13 LegendMM 100.00   -4 LegendNANA
23:00 Legend Double Dagger 0.2 -3.8 74 11 16 LegendMM 99.99     LegendNANA

Notes on Data Quality.

Legend

  • E = Estimated
  • M = Missing
  • NA = Not Available
  • ‡ = Partner data that is not subject to review by the National Climate Archives
Date modified: